Somerville, MA (02145)

8:39 PM EDT on March 27, 2015 (GMT -0400)
Medford | | Change Station
CLOSE
Current Station
Personal Weather Station
Location: Medford, MA
Elevation: 39 ft
Nearby Weather Stations
Active Advisory: Special Statement

Elev 39 ft 42.40 °N, 71.11 °W | Updated 2 seconds ago

Overcast
Overcast
40.0 °F
Feels Like 40 °F
N
0.0
Wind Variable Wind from North
Gusts 0.0 mph

Today
High -- | Low -- °F
--% Chance of Precip.
Yesterday
High -- | Low -- °F
Precip. -- in
6:35 AM 7:04 PM
First Quarter, 57% visible
Pressure 29.74 in
Visibility 10.0 miles
Clouds Few 2000 ft
Mostly Cloudy 5000 ft
Mostly Cloudy 13000 ft
Mostly Cloudy 26000 ft
Windchill 40 °F
Dew Point 36 °F
Humidity 87%
Rainfall 0.00 in
Snow Depth Not available.
UV 0 out of 12
Pollen 2.40 out of 12
Air Quality Not available.
Flu Activity Not available.
METAR KBOS 272354Z 00000KT 10SM FEW020 BKN050 BKN130 BKN260 04/02 A2974 RMK AO2 SLP069 T00390017 10050 20033 53003

More Conditions Fewer Conditions

Pressure 29.74 in
Visibility 10.0 miles
Clouds Few 2000 ft
Mostly Cloudy 5000 ft
Mostly Cloudy 13000 ft
Mostly Cloudy 26000 ft
Windchill 40 °F
Dew Point 36 °F
Humidity 87%
Rainfall 0.00 in
Snow Depth Not available.
UV 0 out of 12
Pollen 2.40 out of 12
Air Quality Not available.
Flu Activity Not available.
METAR KBOS 272354Z 00000KT 10SM FEW020 BKN050 BKN130 BKN260 04/02 A2974 RMK AO2 SLP069 T00390017 10050 20033 53003

More Conditions Fewer Conditions

10-Day Weather Forecast

Almanac

Astronomy

Mar. 27, 2015 Rise Set
Actual Time
Civil Twilight
Nautical Twilight
Astronomical Twilight
Moon
Length of Visible Light
Length of Day
Tomorrow will be .
, % of the Moon is Illuminated

Today's Extremes

State Highs State Lows

Community

WunderPhotos

Upload Photos

1,808,887 photos uploaded!

WunderBlogs® & News

Nearby

Air Quality

  Air Quality AQ Index Pollutant
Not available.

Snow Depth

Station Depth Elevation

Earthquake Activity

City Distance Mag. Time & Date
Minimum magnitude displayed is 2.5.

Coastal Water Temperatures

Place Temperature

Stations

Nearby Weather Stations

Station Location Temp. Windchill Dew Point Humidity Wind Precip. Elev Updated Type
                   
Special Statement
Statement as of 4:45 PM EDT on March 27, 2015

... Accumulating snowfall expected late tonight into Saturday...

A low pressure passing well southeast of southern New England will
produce some snowfall within our region. The expected timing will
be late tonight into Saturday.

Travelers should be prepared for lower visibility at times...
along with the possibility of snow-covered roads.

Total snow accumulations of 1 to 3 inches are expected... with
locally higher amounts possible. Please see our winter weather
Page for more details at... weather.Gov/Boston/winter.


Belk